Time,TemperatureF,DewpointF,PressureIn,WindDirection,WindDirectionDegrees,WindSpeedMPH,WindSpeedGustMPH,Humidity,HourlyPrecipIn,Conditions,Clouds,dailyrainin,SoftwareType,DateUTC
2013-04-04 00:00:00,57.9,50.4,29.94,South,180,0.9,2.9,76,0.00,,---,0.00,VWS V14.01,2013-04-04 07:00:00,
2013-04-04 00:05:00,57.7,49.5,29.94,ESE,112,0.0,0.0,74,0.00,,---,0.00,VWS V14.01,2013-04-04 07:05:00,
2013-04-04 00:10:00,57.6,50.1,29.94,ESE,112,0.0,0.0,76,0.00,,---,0.00,VWS V14.01,2013-04-04 07:10:00,
2013-04-04 00:15:00,57.4,49.9,29.94,ESE,112,0.0,0.0,76,0.00,,---,0.00,VWS V14.01,2013-04-04 07:15:00,
2013-04-04 00:20:00,57.0,49.5,29.94,ESE,112,0.0,0.0,76,0.00,,---,0.00,VWS V14.01,2013-04-04 07:20:00,
2013-04-04 00:25:00,56.8,49.7,29.94,ESE,112,0.0,0.0,77,0.00,,---,0.00,VWS V14.01,2013-04-04 07:25:00,
2013-04-04 00:30:00,56.8,49.7,29.94,ESE,112,0.0,0.0,77,0.00,,---,0.00,VWS V14.01,2013-04-04 07:30:00,
2013-04-04 00:35:00,56.8,49.7,29.94,ESE,112,0.0,0.0,77,0.00,,---,0.00,VWS V14.01,2013-04-04 07:35:00,
2013-04-04 00:40:00,56.8,49.7,29.94,East,90,0.0,0.0,77,0.00,,---,0.00,VWS V14.01,2013-04-04 07:40:00,
2013-04-04 00:45:00,57.0,49.9,29.94,East,90,0.0,0.0,77,0.00,,---,0.00,VWS V14.01,2013-04-04 07:45:00,
2013-04-04 00:50:00,57.2,50.4,29.94,East,90,0.0,0.0,78,0.00,,---,0.00,VWS V14.01,2013-04-04 07:50:00,
2013-04-04 00:55:00,57.2,50.4,29.94,East,90,0.0,0.0,78,0.00,,---,0.00,VWS V14.01,2013-04-04 07:55:00,
2013-04-04 01:00:00,57.2,50.4,29.94,East,90,0.0,0.0,78,0.00,,---,0.00,VWS V14.01,2013-04-04 08:00:00,
2013-04-04 01:05:00,57.2,50.1,29.94,East,90,0.0,0.0,77,0.00,,---,0.00,VWS V14.01,2013-04-04 08:05:00,
2013-04-04 01:10:00,57.4,50.6,29.94,East,90,0.0,0.0,78,0.00,,---,0.00,VWS V14.01,2013-04-04 08:10:00,
2013-04-04 01:15:00,57.2,50.4,29.94,East,90,0.0,0.0,78,0.00,,---,0.00,VWS V14.01,2013-04-04 08:15:00,
2013-04-04 01:21:00,57.2,50.4,29.94,East,90,0.0,0.0,78,0.00,,---,0.00,VWS V14.01,2013-04-04 08:21:00,
2013-04-04 01:26:00,57.4,50.2,29.94,East,90,0.0,0.0,77,0.00,,---,0.00,VWS V14.01,2013-04-04 08:26:00,
2013-04-04 01:31:00,57.6,50.4,29.94,ESE,112,2.2,2.7,77,0.00,,---,0.00,VWS V14.01,2013-04-04 08:31:00,
2013-04-04 01:36:00,57.9,50.4,29.94,SSE,158,0.0,0.0,76,0.00,,---,0.00,VWS V14.01,2013-04-04 08:36:00,
2013-04-04 01:42:00,57.9,50.4,29.94,SE,135,0.0,0.0,76,0.00,,---,0.00,VWS V14.01,2013-04-04 08:42:00,
2013-04-04 01:47:00,58.1,50.2,29.94,ESE,112,1.6,1.6,75,0.00,,---,0.00,VWS V14.01,2013-04-04 08:47:00,
2013-04-04 01:52:00,58.1,50.2,29.94,ESE,112,0.0,0.0,75,0.00,,---,0.00,VWS V14.01,2013-04-04 08:52:00,
2013-04-04 01:57:00,58.1,49.9,29.94,WNW,292,2.0,2.0,74,0.00,,---,0.00,VWS V14.01,2013-04-04 08:57:00,
2013-04-04 02:02:00,58.5,49.8,29.94,SSE,158,0.0,2.0,73,0.00,,---,0.00,VWS V14.01,2013-04-04 09:02:00,
2013-04-04 02:07:00,58.5,49.8,29.94,ESE,112,0.0,0.0,73,0.00,,---,0.00,VWS V14.01,2013-04-04 09:07:00,
2013-04-04 02:12:00,58.5,49.1,29.94,SSE,158,1.6,2.5,71,0.00,,---,0.00,VWS V14.01,2013-04-04 09:12:00,
2013-04-04 02:17:00,58.5,48.7,29.94,SSE,158,1.6,2.9,70,0.00,,---,0.00,VWS V14.01,2013-04-04 09:17:00,
2013-04-04 02:22:00,58.6,48.1,29.94,SSE,158,0.0,2.0,68,0.00,,---,0.00,VWS V14.01,2013-04-04 09:22:00,
2013-04-04 02:27:00,58.8,47.9,29.94,South,180,2.5,2.5,67,0.00,,---,0.00,VWS V14.01,2013-04-04 09:27:00,
2013-04-04 02:32:00,59.0,46.4,29.94,SE,135,1.1,2.9,63,0.00,,---,0.00,VWS V14.01,2013-04-04 09:32:00,
2013-04-04 02:37:00,59.0,46.4,29.94,SSE,158,0.0,1.1,63,0.00,,---,0.00,VWS V14.01,2013-04-04 09:37:00,
2013-04-04 02:42:00,59.0,46.0,29.94,SSE,158,2.2,2.2,62,0.00,,---,0.00,VWS V14.01,2013-04-04 09:42:00,
2013-04-04 02:47:00,59.2,44.9,29.94,SSE,158,1.6,2.5,59,0.00,,---,0.00,VWS V14.01,2013-04-04 09:47:00,
2013-04-04 02:52:00,59.2,44.9,29.94,SE,135,0.0,0.0,59,0.00,,---,0.00,VWS V14.01,2013-04-04 09:52:00,
2013-04-04 02:57:00,58.8,45.0,29.94,SSE,158,2.5,2.5,60,0.00,,---,0.00,VWS V14.01,2013-04-04 09:57:00,
2013-04-04 03:02:00,58.8,44.5,29.94,SSE,158,0.0,0.0,59,0.00,,---,0.00,VWS V14.01,2013-04-04 10:02:00,
2013-04-04 03:07:00,58.6,43.9,29.94,SSE,158,0.0,0.0,58,0.00,,---,0.00,VWS V14.01,2013-04-04 10:07:00,
2013-04-04 03:12:00,58.5,43.3,29.94,SE,135,0.0,1.6,57,0.00,,---,0.00,VWS V14.01,2013-04-04 10:12:00,
2013-04-04 03:17:00,58.5,42.8,29.94,SE,135,0.0,0.0,56,0.00,,---,0.00,VWS V14.01,2013-04-04 10:17:00,
2013-04-04 03:22:00,58.1,42.5,29.94,SSE,158,0.0,0.9,56,0.00,,---,0.00,VWS V14.01,2013-04-04 10:22:00,
2013-04-04 03:27:00,57.9,42.3,29.94,SSE,158,0.0,0.0,56,0.00,,---,0.00,VWS V14.01,2013-04-04 10:27:00,
2013-04-04 03:32:00,57.7,41.2,29.94,SE,135,2.0,2.9,54,0.00,,---,0.00,VWS V14.01,2013-04-04 10:32:00,
2013-04-04 03:37:00,57.7,41.7,29.94,ESE,112,0.0,0.0,55,0.00,,---,0.00,VWS V14.01,2013-04-04 10:37:00,
2013-04-04 03:42:00,57.6,41.5,29.94,South,180,2.2,2.5,55,0.00,,---,0.00,VWS V14.01,2013-04-04 10:42:00,
2013-04-04 03:47:00,57.6,41.5,29.94,SSE,158,0.0,0.0,55,0.00,,---,0.00,VWS V14.01,2013-04-04 10:47:00,
2013-04-04 03:53:00,57.6,41.5,29.94,SSE,158,0.0,0.0,55,0.00,,---,0.00,VWS V14.01,2013-04-04 10:53:00,
2013-04-04 03:58:00,57.4,41.8,29.94,SSE,158,1.6,2.0,56,0.00,,---,0.00,VWS V14.01,2013-04-04 10:58:00,
2013-04-04 04:03:00,57.6,42.0,29.94,SSE,158,1.1,2.0,56,0.00,,---,0.00,VWS V14.01,2013-04-04 11:03:00,
2013-04-04 04:08:00,57.4,42.3,29.94,South,180,2.2,2.2,57,0.00,,---,0.00,VWS V14.01,2013-04-04 11:08:00,
2013-04-04 04:13:00,57.4,42.3,29.94,SSE,158,1.3,2.0,57,0.00,,---,0.00,VWS V14.01,2013-04-04 11:13:00,
2013-04-04 04:18:00,57.4,42.7,29.94,ENE,68,0.0,0.0,58,0.00,,---,0.00,VWS V14.01,2013-04-04 11:18:00,
2013-04-04 04:23:00,57.2,43.0,29.94,SSE,158,0.0,0.0,59,0.00,,---,0.00,VWS V14.01,2013-04-04 11:23:00,
2013-04-04 04:28:00,56.8,43.5,29.94,SSW,202,1.1,1.1,61,0.00,,---,0.00,VWS V14.01,2013-04-04 11:28:00,
2013-04-04 04:33:00,56.8,44.0,29.94,South,180,0.0,2.0,62,0.00,,---,0.00,VWS V14.01,2013-04-04 11:33:00,
2013-04-04 04:39:00,56.8,43.5,29.94,South,180,0.0,0.0,61,0.00,,---,0.00,VWS V14.01,2013-04-04 11:39:00,
2013-04-04 04:44:00,56.8,44.0,29.94,South,180,1.6,1.6,62,0.00,,---,0.00,VWS V14.01,2013-04-04 11:44:00,
2013-04-04 04:49:00,56.8,44.0,29.94,SSE,158,0.9,2.0,62,0.00,,---,0.00,VWS V14.01,2013-04-04 11:49:00,
2013-04-04 04:54:00,56.8,44.4,29.94,South,180,0.0,0.0,63,0.00,,---,0.00,VWS V14.01,2013-04-04 11:54:00,
2013-04-04 04:59:00,57.0,44.1,29.94,SSW,202,4.3,4.3,62,0.00,,---,0.00,VWS V14.01,2013-04-04 11:59:00,
2013-04-04 05:04:00,57.0,43.3,29.94,South,180,2.0,3.6,60,0.00,,---,0.00,VWS V14.01,2013-04-04 12:04:00,
2013-04-04 05:09:00,57.0,42.0,29.94,South,180,3.6,5.8,57,0.00,,---,0.00,VWS V14.01,2013-04-04 12:09:00,
2013-04-04 05:15:00,56.8,42.2,29.94,WNW,292,2.9,4.9,58,0.00,,---,0.00,VWS V14.01,2013-04-04 12:15:00,
2013-04-04 05:20:00,56.7,42.1,29.97,SSE,158,2.5,4.0,58,0.00,,---,0.00,VWS V14.01,2013-04-04 12:20:00,
2013-04-04 05:25:00,56.3,43.0,29.97,SSW,202,2.7,8.7,61,0.00,,---,0.00,VWS V14.01,2013-04-04 12:25:00,
2013-04-04 05:30:00,55.4,45.0,29.97,South,180,2.5,3.6,68,0.00,,---,0.00,VWS V14.01,2013-04-04 12:30:00,
2013-04-04 05:35:00,54.1,45.3,29.97,East,90,3.1,3.1,72,0.00,,---,0.00,VWS V14.01,2013-04-04 12:35:00,
2013-04-04 05:40:00,53.6,46.6,29.97,SSW,202,4.3,4.3,77,0.00,,---,0.00,VWS V14.01,2013-04-04 12:40:00,
2013-04-04 05:46:00,53.2,46.9,29.97,SW,225,2.9,2.9,79,0.00,,---,0.00,VWS V14.01,2013-04-04 12:46:00,
2013-04-04 05:51:00,53.1,47.7,29.97,ESE,112,2.9,2.9,82,0.00,,---,0.00,VWS V14.01,2013-04-04 12:51:00,
2013-04-04 05:56:00,52.7,48.0,29.97,WSW,248,4.3,4.3,84,0.00,,---,0.00,VWS V14.01,2013-04-04 12:56:00,
2013-04-04 06:01:00,52.5,47.8,29.97,SSW,202,1.1,1.1,84,0.00,,---,0.00,VWS V14.01,2013-04-04 13:01:00,
2013-04-04 06:06:00,52.5,48.2,29.97,SSW,202,4.0,4.0,85,0.00,,---,0.00,VWS V14.01,2013-04-04 13:06:00,
2013-04-04 06:12:00,52.3,48.0,29.97,East,90,0.0,0.0,85,0.00,,---,0.00,VWS V14.01,2013-04-04 13:12:00,
2013-04-04 06:17:00,52.3,49.2,29.97,SE,135,0.0,0.0,89,0.00,,---,0.00,VWS V14.01,2013-04-04 13:17:00,
2013-04-04 06:22:00,52.3,48.6,30.00,South,180,0.0,0.0,87,0.05,,---,0.05,VWS V14.01,2013-04-04 13:22:00,
2013-04-04 06:27:00,52.2,48.4,30.00,East,90,1.6,1.6,87,0.05,,---,0.05,VWS V14.01,2013-04-04 13:27:00,
2013-04-04 06:32:00,52.2,49.0,30.00,East,90,0.0,1.3,89,0.05,,---,0.05,VWS V14.01,2013-04-04 13:32:00,
2013-04-04 06:37:00,52.2,49.0,30.00,East,90,0.0,0.0,89,0.05,,---,0.05,VWS V14.01,2013-04-04 13:37:00,
2013-04-04 06:42:00,52.2,49.3,30.00,East,90,0.0,1.6,90,0.09,,---,0.09,VWS V14.01,2013-04-04 13:42:00,
2013-04-04 06:47:00,52.2,49.9,30.00,NNE,22,0.0,0.0,92,0.09,,---,0.09,VWS V14.01,2013-04-04 13:47:00,
2013-04-04 06:52:00,52.3,49.5,30.00,WNW,292,0.0,1.1,90,0.09,,---,0.09,VWS V14.01,2013-04-04 13:52:00,
2013-04-04 06:57:00,52.3,49.8,30.00,NNE,22,0.0,0.0,91,0.09,,---,0.09,VWS V14.01,2013-04-04 13:57:00,
2013-04-04 07:02:00,52.3,49.8,30.00,ESE,112,0.0,0.0,91,0.13,,---,0.13,VWS V14.01,2013-04-04 14:02:00,
2013-04-04 07:07:00,52.5,50.0,30.03,ENE,68,0.0,0.0,91,0.13,,---,0.13,VWS V14.01,2013-04-04 14:07:00,
2013-04-04 07:12:00,52.5,50.0,30.03,East,90,0.0,0.0,91,0.13,,---,0.13,VWS V14.01,2013-04-04 14:12:00,
2013-04-04 07:17:00,52.5,50.0,30.03,East,90,2.5,2.5,91,0.17,,---,0.17,VWS V14.01,2013-04-04 14:17:00,
2013-04-04 07:22:00,52.5,50.0,30.00,East,90,0.0,0.0,91,0.12,,---,0.17,VWS V14.01,2013-04-04 14:22:00,
2013-04-04 07:27:00,52.7,50.2,30.00,ESE,112,0.0,1.6,91,0.16,,---,0.21,VWS V14.01,2013-04-04 14:27:00,
2013-04-04 07:32:00,52.7,50.7,30.00,East,90,2.5,2.5,93,0.16,,---,0.21,VWS V14.01,2013-04-04 14:32:00,
2013-04-04 07:37:00,52.7,51.0,30.00,ENE,68,0.0,0.0,94,0.21,,---,0.26,VWS V14.01,2013-04-04 14:37:00,
2013-04-04 07:42:00,52.9,51.2,30.00,North,0,0.0,0.0,94,0.17,,---,0.26,VWS V14.01,2013-04-04 14:42:00,
2013-04-04 07:48:00,53.1,51.7,30.00,ESE,112,3.1,4.3,95,0.21,,---,0.30,VWS V14.01,2013-04-04 14:48:00,
2013-04-04 07:53:00,52.9,51.5,30.03,SE,135,0.0,0.0,95,0.21,,---,0.30,VWS V14.01,2013-04-04 14:53:00,
2013-04-04 07:58:00,52.9,51.5,30.03,SE,135,2.5,2.7,95,0.21,,---,0.30,VWS V14.01,2013-04-04 14:58:00,
2013-04-04 08:03:00,52.9,51.5,30.03,ENE,68,0.0,0.0,95,0.21,,---,0.34,VWS V14.01,2013-04-04 15:03:00,
2013-04-04 08:08:00,52.7,51.3,30.03,East,90,2.0,3.6,95,0.21,,---,0.34,VWS V14.01,2013-04-04 15:08:00,
2013-04-04 08:13:00,52.5,51.4,30.03,NNW,338,0.0,2.5,96,0.21,,---,0.34,VWS V14.01,2013-04-04 15:13:00,
2013-04-04 08:18:00,52.5,51.7,30.03,SW,225,1.1,2.7,97,0.17,,---,0.34,VWS V14.01,2013-04-04 15:18:00,
2013-04-04 08:24:00,52.7,52.2,30.03,ESE,112,1.3,1.6,98,0.21,,---,0.38,VWS V14.01,2013-04-04 15:24:00,
2013-04-04 08:29:00,52.7,51.9,30.03,South,180,0.0,0.9,97,0.17,,---,0.38,VWS V14.01,2013-04-04 15:29:00,
2013-04-04 08:34:00,52.9,52.0,30.03,ENE,68,1.3,1.6,97,0.12,,---,0.38,VWS V14.01,2013-04-04 15:34:00,
2013-04-04 08:39:00,52.9,51.8,30.03,ESE,112,0.0,1.3,96,0.12,,---,0.38,VWS V14.01,2013-04-04 15:39:00,
2013-04-04 08:44:00,53.1,52.0,30.03,SSE,158,0.0,1.3,96,0.12,,---,0.38,VWS V14.01,2013-04-04 15:44:00,
2013-04-04 08:50:00,53.1,52.0,30.03,ENE,68,0.0,1.1,96,0.08,,---,0.38,VWS V14.01,2013-04-04 15:50:00,
2013-04-04 08:55:00,53.1,52.0,30.03,West,270,0.0,0.0,96,0.08,,---,0.38,VWS V14.01,2013-04-04 15:55:00,
2013-04-04 09:00:00,53.2,52.1,30.03,WSW,248,0.0,1.3,96,0.12,,---,0.42,VWS V14.01,2013-04-04 16:00:00,
2013-04-04 09:05:00,53.2,52.1,30.06,SE,135,0.0,0.0,96,0.08,,---,0.42,VWS V14.01,2013-04-04 16:05:00,
2013-04-04 09:10:00,53.4,52.6,30.06,ESE,112,0.9,0.9,97,0.08,,---,0.42,VWS V14.01,2013-04-04 16:10:00,
2013-04-04 09:15:00,54.0,52.8,30.06,SSE,158,0.0,0.9,96,0.08,,---,0.42,VWS V14.01,2013-04-04 16:15:00,
2013-04-04 09:20:00,54.5,53.7,30.06,NNE,22,2.7,2.7,97,0.12,,---,0.46,VWS V14.01,2013-04-04 16:20:00,
2013-04-04 09:25:00,54.7,53.6,30.06,WNW,292,2.0,2.0,96,0.08,,---,0.46,VWS V14.01,2013-04-04 16:25:00,
2013-04-04 09:30:00,55.2,53.8,30.06,SSW,202,4.3,4.3,95,0.08,,---,0.46,VWS V14.01,2013-04-04 16:30:00,
2013-04-04 09:35:00,55.4,53.7,30.03,ESE,112,2.2,2.2,94,0.08,,---,0.46,VWS V14.01,2013-04-04 16:35:00,
2013-04-04 09:40:00,55.4,53.7,30.03,East,90,2.7,2.7,94,0.08,,---,0.46,VWS V14.01,2013-04-04 16:40:00,
2013-04-04 09:45:00,55.4,53.7,30.03,SSW,202,0.0,0.0,94,0.08,,---,0.46,VWS V14.01,2013-04-04 16:45:00,
2013-04-04 09:50:00,55.8,54.1,30.06,SSE,158,1.1,1.3,94,0.08,,---,0.46,VWS V14.01,2013-04-04 16:50:00,
2013-04-04 09:56:00,56.1,54.1,30.06,NE,45,1.3,2.5,93,0.08,,---,0.46,VWS V14.01,2013-04-04 16:56:00,
2013-04-04 10:01:00,56.7,54.7,30.06,SE,135,2.0,2.0,93,0.04,,---,0.46,VWS V14.01,2013-04-04 17:01:00,
2013-04-04 10:06:00,57.6,55.3,30.03,East,90,1.6,2.2,92,0.04,,---,0.46,VWS V14.01,2013-04-04 17:06:00,
2013-04-04 10:11:00,57.6,55.0,30.03,SSE,158,2.5,2.5,91,0.04,,---,0.46,VWS V14.01,2013-04-04 17:11:00,
2013-04-04 10:16:00,57.9,55.0,30.03,East,90,0.0,0.0,90,0.04,,---,0.46,VWS V14.01,2013-04-04 17:16:00,
2013-04-04 10:21:00,58.5,54.9,30.06,West,270,1.6,1.6,88,0.00,,---,0.46,VWS V14.01,2013-04-04 17:21:00,
2013-04-04 10:27:00,58.3,54.4,30.06,SSW,202,3.4,3.4,87,0.00,,---,0.46,VWS V14.01,2013-04-04 17:27:00,
2013-04-04 10:32:00,57.9,53.4,30.06,SE,135,0.9,1.3,85,0.00,,---,0.46,VWS V14.01,2013-04-04 17:32:00,
2013-04-04 10:37:00,57.9,53.8,30.03,East,90,0.9,1.3,86,0.00,,---,0.46,VWS V14.01,2013-04-04 17:37:00,
2013-04-04 10:42:00,58.3,54.1,30.03,SSE,158,1.6,1.6,86,0.00,,---,0.46,VWS V14.01,2013-04-04 17:42:00,
2013-04-04 10:47:00,59.2,55.0,30.03,ENE,68,0.9,0.9,86,0.00,,---,0.46,VWS V14.01,2013-04-04 17:47:00,
2013-04-04 10:52:00,60.4,55.9,30.03,South,180,4.0,5.4,85,0.00,,---,0.46,VWS V14.01,2013-04-04 17:52:00,
2013-04-04 10:57:00,60.4,55.3,30.03,SE,135,2.0,2.0,83,0.00,,---,0.46,VWS V14.01,2013-04-04 17:57:00,
2013-04-04 11:02:00,60.6,55.1,30.03,South,180,1.6,2.2,82,0.00,,---,0.46,VWS V14.01,2013-04-04 18:02:00,
2013-04-04 11:07:00,60.8,54.9,30.06,ENE,68,5.4,5.4,81,0.00,,---,0.46,VWS V14.01,2013-04-04 18:07:00,
2013-04-04 11:12:00,60.6,54.8,30.06,SE,135,0.9,1.1,81,0.00,,---,0.46,VWS V14.01,2013-04-04 18:12:00,
2013-04-04 11:17:00,60.4,53.9,30.06,East,90,3.6,3.6,79,0.00,,---,0.46,VWS V14.01,2013-04-04 18:17:00,
2013-04-04 11:22:00,60.1,53.9,30.03,NNW,338,0.0,2.2,80,0.00,,---,0.46,VWS V14.01,2013-04-04 18:22:00,
2013-04-04 11:27:00,60.1,54.2,30.03,ENE,68,2.5,3.1,81,0.00,,---,0.46,VWS V14.01,2013-04-04 18:27:00,
2013-04-04 11:32:00,59.9,54.4,30.03,WSW,248,0.0,0.0,82,0.00,,---,0.46,VWS V14.01,2013-04-04 18:32:00,
2013-04-04 11:37:00,59.7,54.2,30.03,NNE,22,0.0,2.7,82,0.00,,---,0.46,VWS V14.01,2013-04-04 18:37:00,
2013-04-04 11:42:00,59.9,55.1,30.03,ESE,112,0.9,0.9,84,0.00,,---,0.46,VWS V14.01,2013-04-04 18:42:00,
2013-04-04 11:47:00,60.1,55.6,30.03,SE,135,1.3,4.3,85,0.00,,---,0.46,VWS V14.01,2013-04-04 18:47:00,
2013-04-04 11:52:00,60.1,55.9,30.06,ENE,68,2.5,2.5,86,0.00,,---,0.46,VWS V14.01,2013-04-04 18:52:00,
2013-04-04 11:57:00,60.4,56.6,30.06,East,90,0.0,1.3,87,0.00,,---,0.46,VWS V14.01,2013-04-04 18:57:00,
2013-04-04 12:02:00,60.6,56.4,30.06,ESE,112,1.3,6.5,86,0.04,,---,0.50,VWS V14.01,2013-04-04 19:02:00,
2013-04-04 12:07:00,60.6,56.7,30.03,SE,135,0.0,2.9,87,0.04,,---,0.50,VWS V14.01,2013-04-04 19:07:00,
2013-04-04 12:12:00,60.6,57.4,30.03,South,180,3.4,3.4,89,0.04,,---,0.50,VWS V14.01,2013-04-04 19:12:00,
2013-04-04 12:17:00,60.4,56.9,30.03,ESE,112,1.6,2.9,88,0.04,,---,0.50,VWS V14.01,2013-04-04 19:17:00,
2013-04-04 12:22:00,61.5,58.2,30.03,East,90,2.0,2.0,89,0.04,,---,0.50,VWS V14.01,2013-04-04 19:22:00,
2013-04-04 12:27:00,61.5,58.2,30.03,SSE,158,2.9,2.9,89,0.04,,---,0.50,VWS V14.01,2013-04-04 19:27:00,
2013-04-04 12:32:00,61.0,57.4,30.03,WSW,248,0.0,0.0,88,0.04,,---,0.50,VWS V14.01,2013-04-04 19:32:00,
2013-04-04 12:37:00,61.0,57.4,30.06,SSE,158,2.9,4.9,88,0.04,,---,0.50,VWS V14.01,2013-04-04 19:37:00,
2013-04-04 12:42:00,61.2,57.6,30.06,ESE,112,0.0,3.1,88,0.04,,---,0.50,VWS V14.01,2013-04-04 19:42:00,
2013-04-04 12:47:00,61.7,58.1,30.06,East,90,2.0,3.6,88,0.04,,---,0.50,VWS V14.01,2013-04-04 19:47:00,
2013-04-04 12:52:00,61.7,58.1,30.03,SSE,158,0.0,0.0,88,0.04,,---,0.50,VWS V14.01,2013-04-04 19:52:00,
2013-04-04 12:57:00,61.3,57.8,30.03,ESE,112,6.3,6.3,88,0.04,,---,0.50,VWS V14.01,2013-04-04 19:57:00,
2013-04-04 13:03:00,61.5,58.6,30.03,SSE,158,4.3,4.3,90,0.00,,---,0.50,VWS V14.01,2013-04-04 20:03:00,
2013-04-04 13:08:00,61.7,58.7,30.03,SE,135,2.7,2.9,90,0.00,,---,0.50,VWS V14.01,2013-04-04 20:08:00,
2013-04-04 13:13:00,61.5,58.2,30.03,ESE,112,2.5,5.6,89,0.00,,---,0.50,VWS V14.01,2013-04-04 20:13:00,
2013-04-04 13:18:00,61.9,58.6,30.03,SE,135,0.0,2.9,89,0.00,,---,0.50,VWS V14.01,2013-04-04 20:18:00,
2013-04-04 13:23:00,63.3,60.0,30.00,SE,135,2.7,4.9,89,0.00,,---,0.50,VWS V14.01,2013-04-04 20:23:00,
2013-04-04 13:28:00,64.6,61.0,30.00,SSE,158,2.9,4.0,88,0.00,,---,0.50,VWS V14.01,2013-04-04 20:28:00,
2013-04-04 13:33:00,64.8,58.8,30.00,ENE,68,2.7,9.0,81,0.00,,---,0.50,VWS V14.01,2013-04-04 20:33:00,
2013-04-04 13:38:00,64.8,59.1,30.03,ESE,112,0.0,2.7,82,0.00,,---,0.50,VWS V14.01,2013-04-04 20:38:00,
2013-04-04 13:43:00,65.1,59.2,30.03,South,180,0.9,2.5,81,0.00,,---,0.50,VWS V14.01,2013-04-04 20:43:00,
2013-04-04 13:48:00,65.7,59.0,30.03,ENE,68,2.0,3.6,79,0.00,,---,0.50,VWS V14.01,2013-04-04 20:48:00,
2013-04-04 13:53:00,67.1,60.0,30.03,ESE,112,1.6,4.0,78,0.00,,---,0.50,VWS V14.01,2013-04-04 20:53:00,
2013-04-04 13:58:00,67.3,58.7,30.03,ENE,68,5.8,5.8,74,0.00,,---,0.50,VWS V14.01,2013-04-04 20:58:00,
2013-04-04 14:03:00,67.1,58.2,30.03,SSW,202,1.6,5.4,73,0.00,,---,0.50,VWS V14.01,2013-04-04 21:03:00,
2013-04-04 14:08:00,65.7,55.2,30.03,SSW,202,4.7,5.6,69,0.00,,---,0.50,VWS V14.01,2013-04-04 21:08:00,
2013-04-04 14:13:00,65.8,56.6,30.03,South,180,3.1,3.1,72,0.00,,---,0.50,VWS V14.01,2013-04-04 21:13:00,
2013-04-04 14:18:00,66.0,56.7,30.03,South,180,1.6,6.5,72,0.00,,---,0.50,VWS V14.01,2013-04-04 21:18:00,
2013-04-04 14:23:00,66.7,57.4,30.03,ESE,112,2.0,2.0,72,0.00,,---,0.50,VWS V14.01,2013-04-04 21:23:00,
2013-04-04 14:28:00,67.1,56.2,30.03,WNW,292,3.1,3.1,68,0.00,,---,0.50,VWS V14.01,2013-04-04 21:28:00,
2013-04-04 14:34:00,68.2,56.8,30.00,South,180,4.3,4.3,67,0.00,,---,0.50,VWS V14.01,2013-04-04 21:34:00,
2013-04-04 14:39:00,69.3,56.6,30.00,SSE,158,4.0,6.5,64,0.00,,---,0.50,VWS V14.01,2013-04-04 21:39:00,
2013-04-04 14:44:00,68.7,56.1,30.00,South,180,2.7,5.8,64,0.00,,---,0.50,VWS V14.01,2013-04-04 21:44:00,
2013-04-04 14:49:00,68.7,56.5,30.00,SSE,158,3.4,3.4,65,0.00,,---,0.50,VWS V14.01,2013-04-04 21:49:00,
2013-04-04 14:54:00,68.0,55.8,30.00,SSW,202,2.5,2.7,65,0.00,,---,0.50,VWS V14.01,2013-04-04 21:54:00,
2013-04-04 14:59:00,67.8,55.6,30.00,WSW,248,2.5,4.9,65,0.00,,---,0.50,VWS V14.01,2013-04-04 21:59:00,
2013-04-04 15:04:00,68.2,55.5,29.97,SW,225,2.7,4.0,64,0.00,,---,0.50,VWS V14.01,2013-04-04 22:04:00,
2013-04-04 15:09:00,68.2,55.1,29.97,East,90,2.0,4.9,63,0.00,,---,0.50,VWS V14.01,2013-04-04 22:09:00,
2013-04-04 15:14:00,67.5,54.9,29.97,SW,225,3.1,4.7,64,0.00,,---,0.50,VWS V14.01,2013-04-04 22:14:00,
2013-04-04 15:20:00,67.3,54.7,29.97,South,180,7.6,7.6,64,0.00,,---,0.50,VWS V14.01,2013-04-04 22:20:00,
2013-04-04 15:25:00,66.7,55.0,29.97,SSE,158,1.3,3.1,66,0.00,,---,0.50,VWS V14.01,2013-04-04 22:25:00,
2013-04-04 15:30:00,66.6,54.4,29.97,South,180,3.8,3.8,65,0.00,,---,0.50,VWS V14.01,2013-04-04 22:30:00,
2013-04-04 15:35:00,66.4,54.7,29.97,ESE,112,2.9,3.6,66,0.00,,---,0.50,VWS V14.01,2013-04-04 22:35:00,
2013-04-04 15:40:00,66.4,54.7,29.97,SSW,202,3.6,4.0,66,0.00,,---,0.50,VWS V14.01,2013-04-04 22:40:00,
2013-04-04 15:45:00,66.4,53.8,29.97,SW,225,2.7,6.0,64,0.00,,---,0.50,VWS V14.01,2013-04-04 22:45:00,
2013-04-04 15:50:00,66.0,53.5,29.97,WSW,248,2.7,6.0,64,0.00,,---,0.50,VWS V14.01,2013-04-04 22:50:00,
2013-04-04 15:55:00,65.8,54.6,29.97,WSW,248,3.1,3.1,67,0.00,,---,0.50,VWS V14.01,2013-04-04 22:55:00,
2013-04-04 16:00:00,65.7,55.2,29.97,SW,225,2.7,3.6,69,0.00,,---,0.50,VWS V14.01,2013-04-04 23:00:00,
2013-04-04 16:05:00,65.7,55.6,29.97,WSW,248,3.1,3.1,70,0.00,,---,0.50,VWS V14.01,2013-04-04 23:05:00,
2013-04-04 16:10:00,65.5,55.5,29.97,SW,225,0.0,3.1,70,0.00,,---,0.50,VWS V14.01,2013-04-04 23:10:00,
2013-04-04 16:15:00,65.7,55.2,29.97,SW,225,2.7,6.5,69,0.00,,---,0.50,VWS V14.01,2013-04-04 23:15:00,
2013-04-04 16:20:00,66.6,55.7,30.00,SSW,202,2.7,2.9,68,0.00,,---,0.50,VWS V14.01,2013-04-04 23:20:00,
2013-04-04 16:25:00,66.7,55.8,30.00,SSW,202,3.8,3.8,68,0.00,,---,0.50,VWS V14.01,2013-04-04 23:25:00,
2013-04-04 16:30:00,66.4,54.7,30.00,WSW,248,1.1,2.5,66,0.00,,---,0.50,VWS V14.01,2013-04-04 23:30:00,
2013-04-04 16:35:00,66.7,55.8,30.00,SW,225,1.6,2.5,68,0.00,,---,0.50,VWS V14.01,2013-04-04 23:35:00,
2013-04-04 16:40:00,66.7,54.6,30.00,SW,225,6.5,7.8,65,0.00,,---,0.50,VWS V14.01,2013-04-04 23:40:00,
2013-04-04 16:45:00,66.7,54.6,30.00,SSW,202,2.0,4.0,65,0.00,,---,0.50,VWS V14.01,2013-04-04 23:45:00,
2013-04-04 16:50:00,66.4,54.7,30.00,SE,135,4.7,4.7,66,0.00,,---,0.50,VWS V14.01,2013-04-04 23:50:00,
2013-04-04 16:55:00,66.6,54.4,30.00,WSW,248,2.9,3.6,65,0.00,,---,0.50,VWS V14.01,2013-04-04 23:55:00,
2013-04-04 17:00:00,66.7,54.2,30.00,SSW,202,1.1,5.4,64,0.00,,---,0.50,VWS V14.01,2013-04-05 00:00:00,
2013-04-04 17:05:00,66.6,54.0,30.00,SSW,202,1.3,3.1,64,0.00,,---,0.50,VWS V14.01,2013-04-05 00:05:00,
2013-04-04 17:10:00,66.2,54.1,30.00,South,180,3.4,6.0,65,0.00,,---,0.50,VWS V14.01,2013-04-05 00:10:00,
2013-04-04 17:15:00,66.0,54.3,30.00,SSW,202,1.3,1.3,66,0.00,,---,0.50,VWS V14.01,2013-04-05 00:15:00,
2013-04-04 17:20:00,66.4,54.7,30.00,West,270,4.9,4.9,66,0.00,,---,0.50,VWS V14.01,2013-04-05 00:20:00,
2013-04-04 17:25:00,66.7,55.0,30.00,WNW,292,3.1,3.4,66,0.00,,---,0.50,VWS V14.01,2013-04-05 00:25:00,
2013-04-04 17:30:00,68.0,55.4,30.00,SSE,158,2.7,3.1,64,0.00,,---,0.50,VWS V14.01,2013-04-05 00:30:00,
2013-04-04 17:35:00,68.0,55.0,30.00,WNW,292,1.3,3.1,63,0.00,,---,0.50,VWS V14.01,2013-04-05 00:35:00,
2013-04-04 17:40:00,66.7,53.8,30.00,SSE,158,2.5,3.1,63,0.00,,---,0.50,VWS V14.01,2013-04-05 00:40:00,
2013-04-04 17:45:00,66.9,53.9,30.00,SW,225,3.8,3.8,63,0.00,,---,0.50,VWS V14.01,2013-04-05 00:45:00,
2013-04-04 17:50:00,67.6,53.3,29.97,SW,225,3.1,3.4,60,0.00,,---,0.50,VWS V14.01,2013-04-05 00:50:00,
2013-04-04 17:55:00,67.8,54.3,29.97,ENE,68,3.8,3.8,62,0.00,,---,0.50,VWS V14.01,2013-04-05 00:55:00,
2013-04-04 18:00:00,68.0,53.2,29.97,West,270,2.5,6.7,59,0.00,,---,0.50,VWS V14.01,2013-04-05 01:00:00,
2013-04-04 18:05:00,67.6,53.3,30.00,SSE,158,5.4,5.4,60,0.00,,---,0.50,VWS V14.01,2013-04-05 01:05:00,
2013-04-04 18:10:00,67.3,52.9,30.00,SSE,158,1.6,4.9,60,0.00,,---,0.50,VWS V14.01,2013-04-05 01:10:00,
2013-04-04 18:16:00,67.5,53.6,30.00,SSE,158,2.7,3.4,61,0.00,,---,0.50,VWS V14.01,2013-04-05 01:16:00,
2013-04-04 18:21:00,67.1,53.2,29.97,East,90,0.0,1.3,61,0.00,,---,0.50,VWS V14.01,2013-04-05 01:21:00,
2013-04-04 18:26:00,66.2,52.4,29.97,WNW,292,2.7,3.4,61,0.00,,---,0.50,VWS V14.01,2013-04-05 01:26:00,
2013-04-04 18:31:00,65.7,52.3,29.97,SSE,158,1.3,1.6,62,0.00,,---,0.50,VWS V14.01,2013-04-05 01:31:00,
2013-04-04 18:36:00,64.6,52.1,29.97,SSW,202,2.5,4.0,64,0.00,,---,0.50,VWS V14.01,2013-04-05 01:36:00,
2013-04-04 18:41:00,63.9,52.3,29.97,WNW,292,3.4,4.5,66,0.00,,---,0.50,VWS V14.01,2013-04-05 01:41:00,
2013-04-04 18:46:00,63.3,51.8,29.97,SSE,158,2.5,4.3,66,0.00,,---,0.50,VWS V14.01,2013-04-05 01:46:00,
2013-04-04 18:51:00,63.0,51.8,30.00,SW,225,2.7,2.7,67,0.00,,---,0.50,VWS V14.01,2013-04-05 01:51:00,
2013-04-04 18:57:00,62.6,51.9,30.00,SW,225,1.3,1.6,68,0.00,,---,0.50,VWS V14.01,2013-04-05 01:57:00,
2013-04-04 19:02:00,62.2,52.3,30.00,SW,225,2.2,3.6,70,0.00,,---,0.50,VWS V14.01,2013-04-05 02:02:00,
2013-04-04 19:07:00,61.9,52.0,29.97,SW,225,2.7,3.8,70,0.00,,---,0.50,VWS V14.01,2013-04-05 02:07:00,
2013-04-04 19:12:00,61.7,51.8,29.97,West,270,1.1,2.2,70,0.00,,---,0.50,VWS V14.01,2013-04-05 02:12:00,
2013-04-04 19:17:00,61.3,51.9,29.97,SSW,202,3.1,4.0,71,0.00,,---,0.50,VWS V14.01,2013-04-05 02:17:00,
2013-04-04 19:22:00,61.0,51.5,30.00,South,180,1.3,2.7,71,0.00,,---,0.50,VWS V14.01,2013-04-05 02:22:00,
2013-04-04 19:27:00,60.6,51.9,30.00,SSW,202,2.0,2.5,73,0.00,,---,0.50,VWS V14.01,2013-04-05 02:27:00,
2013-04-04 19:32:00,60.4,51.8,30.00,South,180,0.9,2.0,73,0.00,,---,0.50,VWS V14.01,2013-04-05 02:32:00,
2013-04-04 19:37:00,60.1,51.8,30.00,SW,225,0.0,3.6,74,0.00,,---,0.50,VWS V14.01,2013-04-05 02:37:00,
2013-04-04 19:42:00,59.7,51.1,30.00,SSE,158,2.2,2.2,73,0.00,,---,0.50,VWS V14.01,2013-04-05 02:42:00,
2013-04-04 19:47:00,59.4,51.1,30.00,SSW,202,0.9,2.0,74,0.00,,---,0.50,VWS V14.01,2013-04-05 02:47:00,
2013-04-04 19:52:00,59.2,51.3,30.00,SSE,158,1.6,1.6,75,0.00,,---,0.50,VWS V14.01,2013-04-05 02:52:00,
2013-04-04 19:57:00,58.8,51.3,30.00,South,180,2.0,2.0,76,0.00,,---,0.50,VWS V14.01,2013-04-05 02:57:00,
2013-04-04 20:02:00,58.6,51.5,30.00,SE,135,1.6,1.6,77,0.00,,---,0.50,VWS V14.01,2013-04-05 03:02:00,
2013-04-04 20:07:00,58.3,51.5,30.03,SW,225,1.6,3.1,78,0.00,,---,0.50,VWS V14.01,2013-04-05 03:07:00,
2013-04-04 20:13:00,58.1,51.6,30.03,South,180,0.0,0.0,79,0.00,,---,0.50,VWS V14.01,2013-04-05 03:13:00,
2013-04-04 20:18:00,57.9,51.8,30.03,SW,225,1.6,1.6,80,0.00,,---,0.50,VWS V14.01,2013-04-05 03:18:00,
2013-04-04 20:23:00,57.6,51.5,30.03,South,180,1.6,2.7,80,0.00,,---,0.50,VWS V14.01,2013-04-05 03:23:00,
2013-04-04 20:28:00,57.4,51.9,30.03,SSW,202,0.0,0.0,82,0.00,,---,0.50,VWS V14.01,2013-04-05 03:28:00,
2013-04-04 20:33:00,57.4,52.3,30.03,SSW,202,0.0,0.0,83,0.00,,---,0.50,VWS V14.01,2013-04-05 03:33:00,
2013-04-04 20:38:00,57.0,51.3,30.03,SSE,158,0.0,1.1,81,0.00,,---,0.50,VWS V14.01,2013-04-05 03:38:00,
2013-04-04 20:43:00,56.8,51.1,30.03,SSE,158,0.0,0.0,81,0.00,,---,0.50,VWS V14.01,2013-04-05 03:43:00,
2013-04-04 20:48:00,56.5,51.1,30.03,SSE,158,0.0,0.0,82,0.00,,---,0.50,VWS V14.01,2013-04-05 03:48:00,
2013-04-04 20:53:00,55.9,50.9,30.03,SSE,158,0.0,0.0,83,0.00,,---,0.50,VWS V14.01,2013-04-05 03:53:00,
2013-04-04 20:58:00,55.6,51.2,30.03,SSE,158,0.0,0.0,85,0.00,,---,0.50,VWS V14.01,2013-04-05 03:58:00,
2013-04-04 21:00:00,55.6,50.8,30.03,SSE,158,0.0,1.3,84,0.00,,---,0.50,VWS V14.01,2013-04-05 04:00:00,
2013-04-04 21:04:00,55.4,50.7,30.03,SSE,158,0.0,0.0,84,0.00,,---,0.50,VWS V14.01,2013-04-05 04:04:00,
2013-04-04 21:09:00,55.4,51.0,30.03,SSE,158,0.0,0.0,85,0.00,,---,0.50,VWS V14.01,2013-04-05 04:09:00,
2013-04-04 21:15:00,55.2,51.1,30.03,SSW,202,0.9,0.9,86,0.00,,---,0.50,VWS V14.01,2013-04-05 04:15:00,
2013-04-04 21:20:00,55.2,52.0,30.03,SW,225,0.0,0.0,89,0.00,,---,0.50,VWS V14.01,2013-04-05 04:20:00,
2013-04-04 21:25:00,55.2,52.9,30.03,SSW,202,0.0,0.0,92,0.00,,---,0.50,VWS V14.01,2013-04-05 04:25:00,
2013-04-04 21:30:00,55.0,52.2,30.03,SSW,202,0.0,0.0,90,0.00,,---,0.50,VWS V14.01,2013-04-05 04:30:00,
2013-04-04 21:35:00,55.4,52.2,30.06,South,180,1.3,1.3,89,0.00,,---,0.50,VWS V14.01,2013-04-05 04:35:00,
2013-04-04 21:40:00,55.4,51.9,30.06,SSE,158,0.0,2.0,88,0.00,,---,0.50,VWS V14.01,2013-04-05 04:40:00,
2013-04-04 21:45:00,55.2,51.7,30.06,SSE,158,0.0,0.0,88,0.00,,---,0.50,VWS V14.01,2013-04-05 04:45:00,
2013-04-04 21:50:00,55.6,52.4,30.06,SSE,158,0.9,3.4,89,0.00,,---,0.50,VWS V14.01,2013-04-05 04:50:00,
2013-04-04 21:55:00,55.9,53.0,30.06,East,90,2.0,2.0,90,0.00,,---,0.50,VWS V14.01,2013-04-05 04:55:00,
2013-04-04 22:00:00,55.8,52.6,30.06,SSE,158,0.0,0.0,89,0.00,,---,0.50,VWS V14.01,2013-04-05 05:00:00,
2013-04-04 22:05:00,55.4,51.9,30.06,East,90,0.0,0.0,88,0.00,,---,0.50,VWS V14.01,2013-04-05 05:05:00,
2013-04-04 22:10:00,54.9,51.4,30.06,East,90,0.0,0.0,88,0.00,,---,0.50,VWS V14.01,2013-04-05 05:10:00,
2013-04-04 22:15:00,54.3,50.8,30.06,East,90,0.0,0.0,88,0.00,,---,0.50,VWS V14.01,2013-04-05 05:15:00,
2013-04-04 22:21:00,53.8,50.3,30.06,SSE,158,0.0,0.0,88,0.00,,---,0.50,VWS V14.01,2013-04-05 05:21:00,
2013-04-04 22:26:00,53.4,50.3,30.06,SSE,158,0.0,0.0,89,0.00,,---,0.50,VWS V14.01,2013-04-05 05:26:00,
2013-04-04 22:31:00,53.4,51.2,30.06,South,180,0.0,0.0,92,0.00,,---,0.50,VWS V14.01,2013-04-05 05:31:00,
2013-04-04 22:36:00,53.4,51.5,30.06,South,180,0.0,0.0,93,0.00,,---,0.50,VWS V14.01,2013-04-05 05:36:00,
2013-04-04 22:41:00,53.4,52.0,30.06,South,180,0.0,0.0,95,0.00,,---,0.50,VWS V14.01,2013-04-05 05:41:00,
2013-04-04 22:46:00,53.4,52.6,30.06,South,180,0.0,0.0,97,0.00,,---,0.50,VWS V14.01,2013-04-05 05:46:00,
2013-04-04 22:52:00,53.2,51.8,30.06,East,90,0.0,0.0,95,0.00,,---,0.50,VWS V14.01,2013-04-05 05:52:00,
2013-04-04 22:57:00,52.9,51.2,30.06,East,90,0.0,0.0,94,0.00,,---,0.50,VWS V14.01,2013-04-05 05:57:00,
2013-04-04 23:02:00,52.5,50.6,30.06,East,90,0.0,0.0,93,0.00,,---,0.50,VWS V14.01,2013-04-05 06:02:00,
2013-04-04 23:07:00,52.3,50.4,30.06,East,90,0.0,0.0,93,0.00,,---,0.50,VWS V14.01,2013-04-05 06:07:00,
2013-04-04 23:12:00,52.0,50.0,30.06,East,90,0.0,0.0,93,0.00,,---,0.50,VWS V14.01,2013-04-05 06:12:00,
2013-04-04 23:17:00,51.8,49.8,30.06,East,90,0.0,0.0,93,0.00,,---,0.50,VWS V14.01,2013-04-05 06:17:00,
2013-04-04 23:22:00,52.0,50.3,30.09,East,90,0.0,0.0,94,0.00,,---,0.50,VWS V14.01,2013-04-05 06:22:00,
2013-04-04 23:27:00,51.8,49.8,30.09,East,90,0.0,0.0,93,0.00,,---,0.50,VWS V14.01,2013-04-05 06:27:00,
2013-04-04 23:32:00,51.8,50.1,30.09,East,90,0.0,0.0,94,0.00,,---,0.50,VWS V14.01,2013-04-05 06:32:00,
2013-04-04 23:37:00,51.6,50.0,30.06,East,90,0.0,0.0,94,0.00,,---,0.50,VWS V14.01,2013-04-05 06:37:00,
2013-04-04 23:42:00,51.6,50.2,30.06,East,90,0.0,0.0,95,0.00,,---,0.50,VWS V14.01,2013-04-05 06:42:00,
2013-04-04 23:48:00,51.6,50.2,30.06,East,90,0.0,0.0,95,0.00,,---,0.50,VWS V14.01,2013-04-05 06:48:00,
2013-04-04 23:53:00,51.4,50.3,30.09,East,90,0.0,0.0,96,0.00,,---,0.50,VWS V14.01,2013-04-05 06:53:00,
2013-04-04 23:58:00,51.3,50.2,30.09,East,90,0.0,0.0,96,0.00,,---,0.00,VWS V14.01,2013-04-05 06:58:00,